Date String (YYYY-MM-DD hh:mm:ss) UTC,Instrument flags,Ambient pressure (hPa),Sample flow (lpm),Bypass flow (lpm),Sample temperature (°C),Ambient temperature (°C),ASC tube jacket temperature (°C),LED temperature (°C),Box temperature (°C),Sample RH (%),Span deviation,Mass concentration (μg/m³),Mass concentration (μg/m³),Mass concentration (μg/m³)
DateTimeUTC,F1_M11,P_M11,Q1_M11,Q2_M11,T1_M11,T2_M11,T3_M11,T4_M11,T5_M11,U1_M11,ZSPAN_M11,X2_M11,X0_M11,X1_M11
2022-09-30 17:00:00,,0826.2,5.01,0.00,29.7,28.2,00.0,38.3,31.7,20.4,0000.0,0004.12,0008.28,0003.60
2022-09-30 17:01:00,,0826.2,4.99,0.00,29.7,28.4,00.0,38.4,31.7,20.4,0000.0,0004.11,0008.35,0003.62
2022-09-30 17:02:00,,0826.2,5.01,0.00,29.8,28.6,00.0,38.4,31.7,19.8,0000.0,0004.09,0009.15,0003.63
2022-09-30 17:03:00,,0826.2,4.99,0.00,29.8,28.4,00.0,38.4,31.8,19.7,0000.0,0004.10,0009.36,0003.64
2022-09-30 17:04:00,,0826.1,5.00,0.00,29.8,27.2,00.0,38.4,31.7,20.5,0000.0,0004.15,0009.66,0003.67
2022-09-30 17:05:00,,0826.2,5.00,0.00,29.7,26.4,00.0,38.3,31.5,20.6,0000.0,0004.22,0010.02,0003.68
2022-09-30 17:06:00,,0826.2,5.01,0.00,29.7,26.6,00.0,38.3,31.5,20.8,0000.0,0004.20,0010.87,0003.67
2022-09-30 17:07:00,,0826.2,5.01,0.00,29.6,26.8,00.0,38.3,31.3,20.3,0000.0,0004.19,0011.16,0003.66
2022-09-30 17:08:00,,0826.2,5.00,0.00,29.6,27.1,00.0,38.3,31.3,20.6,0000.0,0004.22,0010.89,0003.66
2022-09-30 17:09:00,,0826.2,5.00,0.00,29.6,27.5,00.0,38.3,31.4,20.6,0000.0,0004.20,0010.85,0003.66
2022-09-30 17:10:00,,0826.2,4.99,0.00,29.6,27.8,00.0,38.2,31.4,19.9,0000.0,0004.19,0011.14,0003.63
2022-09-30 17:11:00,,0826.2,5.00,0.00,29.6,28.0,00.0,38.3,31.5,19.6,0000.0,0004.18,0011.25,0003.61
2022-09-30 17:12:00,,0826.1,5.01,0.00,29.6,28.2,00.0,38.3,31.6,19.3,0000.0,0004.19,0011.14,0003.60
2022-09-30 17:13:00,,0826.1,4.99,0.00,29.7,28.4,00.0,38.3,31.6,19.4,0000.0,0004.22,0010.51,0003.60
2022-09-30 17:14:00,,0826.2,5.01,0.00,29.7,28.5,00.0,38.3,31.6,19.4,0000.0,0004.20,0010.49,0003.59
2022-09-30 17:15:00,,0826.2,4.99,0.00,29.7,28.1,00.0,38.3,31.7,18.5,0000.0,0004.14,0010.33,0003.57
2022-09-30 17:16:00,,0826.2,4.99,0.00,29.7,26.8,00.0,38.3,31.5,19.0,0000.0,0004.06,0010.20,0003.55
2022-09-30 17:17:00,,0826.2,5.01,0.00,29.6,26.3,00.0,38.2,31.4,20.7,0000.0,0004.07,0009.50,0003.55
2022-09-30 17:18:00,,0826.2,5.00,0.00,29.6,26.6,00.0,38.2,31.3,21.2,0000.0,0004.10,0008.78,0003.58
2022-09-30 17:19:00,,0826.2,5.00,0.00,29.5,26.9,00.0,38.2,31.3,21.3,0000.0,0004.08,0008.66,0003.59
2022-09-30 17:20:00,,0826.2,4.99,0.00,29.5,27.2,00.0,38.2,31.3,21.1,0000.0,0004.10,0009.12,0003.58
2022-09-30 17:21:00,,0826.2,4.99,0.00,29.5,27.5,00.0,38.2,31.3,21.0,0000.0,0004.14,0009.97,0003.60
2022-09-30 17:22:00,,0826.2,5.01,0.00,29.5,27.8,00.0,38.2,31.4,21.0,0000.0,0004.17,0010.78,0003.61
2022-09-30 17:23:00,,0826.2,4.99,0.00,29.5,28.0,00.0,38.2,31.4,20.9,0000.0,0004.19,0010.99,0003.62
2022-09-30 17:24:00,,0826.2,5.01,0.00,29.5,28.2,00.0,38.2,31.5,20.8,0000.0,0004.19,0010.84,0003.63
2022-09-30 17:25:00,,0826.2,5.00,0.00,29.6,28.3,00.0,38.2,31.5,20.8,0000.0,0004.21,0010.69,0003.64
2022-09-30 17:26:00,,0826.2,5.01,0.00,29.6,28.5,00.0,38.2,31.6,20.9,0000.0,0004.25,0010.57,0003.65
2022-09-30 17:27:00,,0826.2,4.99,0.00,29.7,28.6,00.0,38.2,31.6,21.1,0000.0,0004.28,0010.49,0003.66
2022-09-30 17:28:00,,0826.2,5.01,0.00,29.7,27.8,00.0,38.2,31.6,21.4,0000.0,0004.31,0010.54,0003.66
2022-09-30 17:29:00,,0826.2,4.98,0.00,29.6,26.5,00.0,38.2,31.4,21.7,0000.0,0004.28,0010.52,0003.65
2022-09-30 17:30:00,,0826.2,4.99,0.00,29.6,26.2,00.0,38.2,31.3,21.2,0000.0,0004.26,0010.37,0003.64
2022-09-30 17:31:00,,0826.2,5.00,0.00,29.5,26.5,00.0,38.1,31.3,20.9,0000.0,0004.26,0010.63,0003.66
2022-09-30 17:32:00,,0826.2,5.00,0.00,29.5,26.8,00.0,38.1,31.2,21.3,0000.0,0004.27,0010.40,0003.66
2022-09-30 17:33:00,,0826.2,4.98,0.00,29.4,27.1,00.0,38.1,31.2,21.8,0000.0,0004.29,0010.61,0003.67
2022-09-30 17:34:00,,0826.2,5.00,0.00,29.4,27.5,00.0,38.1,31.3,22.1,0000.0,0004.28,0010.33,0003.66
2022-09-30 17:35:00,,0826.2,5.00,0.00,29.4,27.7,00.0,38.1,31.3,21.9,0000.0,0004.28,0010.41,0003.66
2022-09-30 17:36:00,,0826.2,5.00,0.00,29.4,27.9,00.0,38.1,31.4,21.7,0000.0,0004.29,0010.48,0003.66
2022-09-30 17:37:00,,0826.2,5.01,0.00,29.5,28.1,00.0,38.1,31.4,20.9,0000.0,0004.27,0010.45,0003.67
2022-09-30 17:38:00,,0826.2,4.99,0.00,29.5,28.3,00.0,38.1,31.4,20.9,0000.0,0004.26,0010.56,0003.66
2022-09-30 17:39:00,,0826.1,4.99,0.00,29.5,28.4,00.0,38.2,31.5,21.0,0000.0,0004.21,0010.55,0003.66
2022-09-30 17:40:00,,0826.2,5.02,0.00,29.6,28.5,00.0,38.2,31.5,21.3,0000.0,0004.19,0010.49,0003.66
2022-09-30 17:41:00,,0826.2,4.99,0.00,29.6,28.6,00.0,38.2,31.6,21.1,0000.0,0004.22,0010.83,0003.66
2022-09-30 17:42:00,,0826.2,5.00,0.00,29.6,28.3,00.0,38.2,31.6,20.7,0000.0,0004.21,0010.74,0003.65
2022-09-30 17:43:00,,0826.1,5.00,0.00,29.6,27.2,00.0,38.2,31.5,20.8,0000.0,0004.18,0010.37,0003.65
2022-09-30 17:44:00,,0826.1,5.00,0.00,29.6,26.9,00.0,38.2,31.5,20.8,0000.0,0004.15,0009.35,0003.65
2022-09-30 17:45:00,,0826.2,5.00,0.00,29.6,27.1,00.0,38.2,31.4,21.4,0000.0,0004.16,0010.26,0003.65
2022-09-30 17:46:00,,0826.2,5.00,0.00,29.5,27.4,00.0,38.2,31.4,21.5,0000.0,0004.17,0010.43,0003.66
2022-09-30 17:47:00,,0826.2,5.01,0.00,29.5,27.6,00.0,38.2,31.4,21.6,0000.0,0004.16,0011.12,0003.66
2022-09-30 17:48:00,,0826.1,5.00,0.00,29.5,27.9,00.0,38.2,31.4,21.8,0000.0,0004.22,0012.01,0003.67
2022-09-30 17:49:00,,0826.0,4.99,0.00,29.6,28.1,00.0,38.2,31.4,21.8,0000.0,0004.28,0012.16,0003.69
2022-09-30 17:50:00,,0826.0,5.01,0.00,29.6,28.3,00.0,38.2,31.5,21.6,0000.0,0004.34,0012.93,0003.71
2022-09-30 17:51:00,,0826.0,4.99,0.00,29.6,28.4,00.0,38.2,31.6,21.5,0000.0,0004.36,0013.26,0003.72
2022-09-30 17:52:00,,0826.0,5.01,0.00,29.6,28.5,00.0,38.2,31.6,21.6,0000.0,0004.38,0014.22,0003.73
2022-09-30 17:53:00,,0826.0,5.00,0.00,29.7,27.8,00.0,38.2,31.6,21.6,0000.0,0004.40,0015.24,0003.74
2022-09-30 17:54:00,,0826.0,4.99,0.00,29.6,26.5,00.0,38.2,31.4,21.5,0000.0,0004.44,0015.18,0003.74
2022-09-30 17:55:00,,0826.0,5.00,0.00,29.6,26.2,00.0,38.2,31.3,21.6,0000.0,0004.46,0015.25,0003.75
2022-09-30 17:56:00,,0826.0,5.01,0.00,29.5,26.4,00.0,38.1,31.3,21.2,0000.0,0004.44,0015.11,0003.75
2022-09-30 17:57:00,,0826.0,5.01,0.00,29.4,26.7,00.0,38.1,31.2,21.2,0000.0,0004.42,0015.04,0003.74
2022-09-30 17:58:00,,0825.9,5.01,0.00,29.4,27.1,00.0,38.1,31.2,22.0,0000.0,0004.46,0015.48,0003.74
2022-09-30 17:59:00,,0826.0,5.00,0.00,29.4,27.4,00.0,38.1,31.2,22.0,0000.0,0004.44,0015.13,0003.74
